CW3577 Weather Reports


Display with metric or nautical units.
time (UTC)temp
F
wind
direction
speed
MPH
gust
MPH
rain 1hr
in
rain 24hr
in
rain mn
in
humidity
%
barometer
mb
20260510063052 49 250 0.0 1.0 0.00 0.48 0.00 95 1011.8
20260510061520 49 250 0.0 2.0 0.00 0.48 0.00 95 1012.1
20260510060048 49 250 0.0 1.0 0.00 0.48 0.00 95 1012.1
20260510054504 49 250 0.0 0.0 0.00 0.48 0.00 95 1012.1
20260510053037 49 250 0.0 0.0 0.00 0.48 0.00 95 1012.3
20260510051601 49 250 0.0 0.0 0.00 0.48 0.00 95 1012.4
20260510050018 49 250 0.0 0.0 0.00 0.48 0.00 95 1012.3
20260510044545 49 250 0.0 0.0 0.00 0.48 0.00 95 1012.4
20260510043101 48 250 0.0 0.0 0.00 0.48 0.00 95 1012.5
20260510043002 48 250 0.0 0.0 0.00 0.48 0.00 95 1012.5
20260510041519 48 250 0.0 0.0 0.00 0.48 0.00 95 1012.5
20260510040045 48 250 0.0 1.0 0.00 0.48 0.48 94 1012.4
20260510034559 48 250 0.0 0.0 0.00 0.48 0.48 94 1012.6
20260510033018 48 250 0.0 2.0 0.00 0.48 0.48 95 1012.5
20260510031550 49 250 0.0 0.0 0.00 0.48 0.48 95 1012.7
20260510030013 49 250 0.0 0.0 0.00 0.48 0.48 95 1012.9
20260510024540 48 250 0.0 1.0 0.00 0.48 0.48 95 1013.0
20260510023008 48 250 0.0 0.0 0.00 0.48 0.48 94 1013.0
20260510021527 48 250 0.0 0.0 0.00 0.48 0.48 94 1013.2
20260510020052 48 250 0.0 1.0 0.00 0.48 0.48 94 1013.3
20260510014514 48 250 0.0 2.0 0.01 0.48 0.48 94 1013.2
20260510013039 48 250 0.0 2.0 0.01 0.48 0.48 94 1013.3
20260510011514 48 250 1.0 4.0 0.02 0.48 0.48 94 1013.2
20260510010033 48 140 0.0 2.0 0.02 0.48 0.48 94 1013.1
20260510004553 47 140 0.0 4.0 0.01 0.47 0.47 94 1012.9
20260510003020 47 141 1.0 4.0 0.02 0.47 0.47 94 1012.9
20260510001538 47 148 2.0 5.0 0.02 0.46 0.46 93 1013.2
20260510000002 47 164 2.0 5.0 0.03 0.46 0.46 93 1013.3
20260509234530 47 133 0.0 3.0 0.05 0.46 0.46 93 1013.2
20260509233058 47 133 1.0 6.0 0.04 0.45 0.45 93 1013.2
20260509231519 47 146 1.0 3.0 0.05 0.44 0.44 93 1013.0
20260509230040 47 161 1.0 7.0 0.04 0.43 0.43 93 1012.9
20260509224556 48 129 2.0 6.0 0.04 0.42 0.42 93 1012.7
20260509223017 48 115 2.0 5.0 0.06 0.40 0.40 93 1012.8
20260509221539 48 93 0.0 3.0 0.09 0.39 0.39 93 1013.1
20260509220059 48 49 0.0 2.0 0.13 0.39 0.39 93 1013.1
20260509214523 48 47 0.0 4.0 0.20 0.38 0.38 92 1013.3
20260509213044 48 14 1.0 4.0 0.17 0.34 0.34 92 1013.4
20260509211509 48 69 0.0 4.0 0.14 0.30 0.30 92 1013.5
20260509210031 48 9 1.0 4.0 0.10 0.26 0.26 91 1013.5
20260509204555 49 67 0.0 5.0 0.02 0.18 0.18 91 1013.5
20260509203016 49 40 2.0 5.0 0.01 0.17 0.17 91 1013.4
20260509201549 49 94 1.0 4.0 0.00 0.16 0.16 91 1013.2
20260509200108 49 62 1.0 3.0 0.00 0.16 0.16 91 1013.4
20260509200002 49 61 1.0 3.0 0.00 0.16 0.16 90 1013.5
20260509194519 49 63 1.0 6.0 0.00 0.16 0.16 89 1013.3
20260509193107 50 34 1.0 4.0 0.00 0.16 0.16 89 1013.3
20260509191504 50 341 2.0 6.0 0.00 0.16 0.16 90 1013.0
20260509190027 49 40 1.0 4.0 0.01 0.16 0.16 91 1013.3
20260509184558 49 44 2.0 6.0 0.02 0.16 0.16 91 1013.5
20260509183013 49 43 0.0 5.0 0.03 0.16 0.16 91 1013.7
20260509181538 48 17 0.0 4.0 0.04 0.16 0.16 91 1014.2
20260509180059 48 11 0.0 3.0 0.03 0.15 0.15 91 1014.2
20260509174521 48 51 0.0 3.0 0.03 0.14 0.14 90 1014.3
20260509173104 48 57 0.0 3.0 0.03 0.13 0.13 91 1014.4
20260509171523 48 22 1.0 4.0 0.03 0.12 0.12 90 1014.5
20260509170035 48 38 1.0 4.0 0.04 0.12 0.12 90 1014.9
20260509164556 47 121 0.0 3.0 0.04 0.11 0.11 90 1014.9
20260509164505 47 121 0.0 3.0 0.04 0.11 0.11 89 1014.9
20260509163020 47 124 0.0 2.0 0.03 0.10 0.10 89 1014.9
20260509161551 47 38 0.0 3.0 0.03 0.09 0.09 89 1014.7
20260509160015 47 40 1.0 4.0 0.03 0.08 0.08 89 1014.7
20260509154536 47 13 1.0 4.0 0.02 0.07 0.07 89 1014.9
20260509153056 47 176 0.0 2.0 0.03 0.07 0.07 88 1015.2
20260509151522 47 151 0.0 2.0 0.03 0.06 0.06 88 1015.3
20260509150100 46 360 0.0 2.0 0.02 0.05 0.05 87 1015.6
20260509144504 46 360 0.0 3.0 0.03 0.05 0.05 87 1015.6
20260509143029 46 360 1.0 4.0 0.03 0.04 0.04 86 1015.8
20260509141555 46 177 0.0 4.0 0.02 0.03 0.03 88 1015.8
20260509140016 46 180 1.0 3.0 0.03 0.03 0.03 87 1015.8
20260509134550 46 186 0.0 2.0 0.02 0.02 0.02 87 1015.6
20260509133022 46 187 0.0 1.0 0.01 0.01 0.01 86 1015.4
20260509131541 45 187 0.0 0.0 0.01 0.01 0.01 84 1015.4
20260509130006 45 190 0.0 2.0 0.00 0.00 0.00 84 1015.4
20260509124523 45 191 1.0 3.0 0.00 0.00 0.00 81 1015.5
20260509123048 45 254 0.0 1.0 0.00 0.00 0.00 80 1015.6
20260509121521 44 253 0.0 2.0 0.00 0.00 0.00 81 1015.8
20260509120038 43 252 0.0 2.0 0.00 0.00 0.00 84 1015.8
20260509114551 42 189 1.0 8.0 0.00 0.00 0.00 86 1016.0
20260509113018 40 269 1.0 3.0 0.00 0.00 0.00 89 1015.6
20260509111534 39 261 0.0 1.0 0.00 0.00 0.00 91 1015.8
20260509110058 38 261 0.0 1.0 0.00 0.00 0.00 92 1015.8
20260509104531 37 261 0.0 0.0 0.00 0.00 0.00 92 1015.7
20260509103046 37 261 0.0 2.0 0.00 0.00 0.00 92 1015.6
20260509101509 36 261 0.0 0.0 0.00 0.00 0.00 91 1015.6
20260509100033 35 261 0.0 1.0 0.00 0.00 0.00 91 1015.4
20260509094550 34 261 0.0 1.0 0.00 0.00 0.00 90 1015.2
20260509093006 34 261 0.0 1.0 0.00 0.00 0.00 90 1015.1
20260509091533 34 261 0.0 1.0 0.00 0.00 0.00 90 1015.0
20260509090104 34 261 0.0 1.0 0.00 0.00 0.00 90 1015.0
20260509084529 34 261 0.0 0.0 0.00 0.00 0.00 88 1015.0
20260509083043 35 261 0.0 1.0 0.00 0.00 0.00 89 1014.8
20260509081519 35 261 0.0 1.0 0.00 0.00 0.00 88 1014.9
20260509080027 35 261 0.0 0.0 0.00 0.00 0.00 88 1014.9
20260509074600 35 261 0.0 1.0 0.00 0.00 0.00 88 1014.9
20260509073014 36 261 0.0 1.0 0.00 0.00 0.00 87 1014.7
20260509071544 36 261 1.0 2.0 0.00 0.00 0.00 87 1014.7
20260509070058 36 261 0.0 0.0 0.00 0.00 0.00 86 1014.7
20260509070006 36 261 0.0 0.0 0.00 0.00 0.00 86 1014.7
20260509064524 36 261 0.0 1.0 0.00 0.00 0.00 85 1014.6